Year,Month,Day,Hour,Minute,Value (Times are PST for temperature in C)
2010,05,20,00,00,7.30
2010,05,20,00,01,7.30
2010,05,20,00,02,7.30
2010,05,20,00,03,7.30
2010,05,20,00,04,7.30
2010,05,20,00,05,7.30
2010,05,20,00,06,7.30
2010,05,20,00,07,7.30
2010,05,20,00,08,7.30
2010,05,20,00,09,7.30
2010,05,20,00,10,7.30
2010,05,20,00,11,7.30
2010,05,20,00,12,7.30
2010,05,20,00,13,7.30
2010,05,20,00,14,7.30
2010,05,20,00,15,7.30
2010,05,20,00,16,7.30
2010,05,20,00,17,7.30
2010,05,20,00,18,7.30
2010,05,20,00,19,7.30
2010,05,20,00,20,7.30
2010,05,20,00,21,7.30
2010,05,20,00,22,7.30
2010,05,20,00,23,7.30
2010,05,20,00,24,7.30
2010,05,20,00,25,7.30
2010,05,20,00,26,7.30
2010,05,20,00,27,7.30
2010,05,20,00,28,7.30
2010,05,20,00,29,7.30
2010,05,20,00,30,7.30
2010,05,20,00,31,7.30
2010,05,20,00,32,7.20
2010,05,20,00,33,7.20
2010,05,20,00,34,7.20
2010,05,20,00,35,7.10
2010,05,20,00,36,7.10
2010,05,20,00,37,7.10
2010,05,20,00,38,7.00
2010,05,20,00,39,7.00
2010,05,20,00,40,6.90
2010,05,20,00,41,6.90
2010,05,20,00,42,6.90
2010,05,20,00,43,6.80
2010,05,20,00,44,6.80
2010,05,20,00,45,6.80
2010,05,20,00,46,6.80
2010,05,20,00,47,6.80
2010,05,20,00,48,6.80
2010,05,20,00,49,6.80
2010,05,20,00,50,6.80
2010,05,20,00,51,6.80
2010,05,20,00,52,6.80
2010,05,20,00,53,6.80
2010,05,20,00,54,6.80
2010,05,20,00,55,6.70
2010,05,20,00,56,6.70
2010,05,20,00,57,6.70
2010,05,20,00,58,6.70
2010,05,20,00,59,6.70
2010,05,20,01,00,6.70
2010,05,20,01,01,6.70
2010,05,20,01,02,6.70
2010,05,20,01,03,6.70
2010,05,20,01,04,6.70
2010,05,20,01,05,6.70
2010,05,20,01,06,6.70
2010,05,20,01,07,6.70
2010,05,20,01,08,6.70
2010,05,20,01,09,6.70
2010,05,20,01,10,6.70
2010,05,20,01,11,6.70
2010,05,20,01,12,6.70
2010,05,20,01,13,6.70
2010,05,20,01,14,6.60
2010,05,20,01,15,6.60
2010,05,20,01,16,6.60
2010,05,20,01,17,6.60
2010,05,20,01,18,6.60
2010,05,20,01,19,6.60
2010,05,20,01,20,6.60
2010,05,20,01,21,6.60
2010,05,20,01,22,6.60
2010,05,20,01,23,6.60
2010,05,20,01,24,6.60
2010,05,20,01,25,6.60
2010,05,20,01,26,6.60
2010,05,20,01,27,6.60
2010,05,20,01,28,6.60
2010,05,20,01,29,6.60
2010,05,20,01,30,6.60
2010,05,20,01,31,6.60
2010,05,20,01,32,6.60
2010,05,20,01,33,6.60
2010,05,20,01,34,6.60
2010,05,20,01,35,6.60
2010,05,20,01,36,6.40
2010,05,20,01,37,6.40
2010,05,20,01,38,6.40
2010,05,20,01,39,6.40
2010,05,20,01,40,6.40
2010,05,20,01,41,6.40
2010,05,20,01,42,6.40
2010,05,20,01,43,6.40
2010,05,20,01,44,6.40
2010,05,20,01,45,6.40
2010,05,20,01,46,6.40
2010,05,20,01,47,6.40
2010,05,20,01,48,6.40
2010,05,20,01,49,6.30
2010,05,20,01,50,6.30
2010,05,20,01,51,6.30
2010,05,20,01,52,6.30
2010,05,20,01,53,6.30
2010,05,20,01,54,6.30
2010,05,20,01,55,6.30
2010,05,20,01,56,6.30
2010,05,20,01,57,6.30
2010,05,20,01,58,6.30
2010,05,20,01,59,6.30
2010,05,20,02,00,6.30
2010,05,20,02,01,6.30
2010,05,20,02,02,6.30
2010,05,20,02,03,6.30
2010,05,20,02,04,6.30
2010,05,20,02,05,6.30
2010,05,20,02,06,6.20
2010,05,20,02,07,6.20
2010,05,20,02,08,6.20
2010,05,20,02,09,6.20
2010,05,20,02,10,6.20
2010,05,20,02,11,6.20
2010,05,20,02,12,6.20
2010,05,20,02,13,6.20
2010,05,20,02,14,6.20
2010,05,20,02,15,6.20
2010,05,20,02,16,6.20
2010,05,20,02,17,6.20
2010,05,20,02,18,6.20
2010,05,20,02,19,6.20
2010,05,20,02,20,6.20
2010,05,20,02,21,6.20
2010,05,20,02,22,6.20
2010,05,20,02,23,6.20
2010,05,20,02,24,6.20
2010,05,20,02,25,6.20
2010,05,20,02,26,6.20
2010,05,20,02,27,6.20
2010,05,20,02,28,6.10
2010,05,20,02,29,6.10
2010,05,20,02,30,6.10
2010,05,20,02,31,6.10
2010,05,20,02,32,6.10
2010,05,20,02,33,6.10
2010,05,20,02,34,6.10
2010,05,20,02,35,6.10
2010,05,20,02,36,6.00
2010,05,20,02,37,6.00
2010,05,20,02,38,6.00
2010,05,20,02,39,6.00
2010,05,20,02,40,6.00
2010,05,20,02,41,5.90
2010,05,20,02,42,5.90
2010,05,20,02,43,5.90
2010,05,20,02,44,5.90
2010,05,20,02,45,5.80
2010,05,20,02,46,5.80
2010,05,20,02,47,5.80
2010,05,20,02,48,5.80
2010,05,20,02,49,5.80
2010,05,20,02,50,5.80
2010,05,20,02,51,5.80
2010,05,20,02,52,5.80
2010,05,20,02,53,5.70
2010,05,20,02,54,5.70
2010,05,20,02,55,5.70
2010,05,20,02,56,5.70
2010,05,20,02,57,5.70
2010,05,20,02,58,5.70
2010,05,20,02,59,5.70
2010,05,20,03,00,5.70
2010,05,20,03,01,5.70
2010,05,20,03,02,5.70
2010,05,20,03,03,5.70
2010,05,20,03,04,5.70
2010,05,20,03,05,5.70
2010,05,20,03,06,5.70
2010,05,20,03,07,5.70
2010,05,20,03,08,5.70
2010,05,20,03,09,5.70
2010,05,20,03,10,5.70
2010,05,20,03,11,5.70
2010,05,20,03,12,5.70
2010,05,20,03,13,5.70
2010,05,20,03,14,5.70
2010,05,20,03,15,5.70
2010,05,20,03,16,5.70
2010,05,20,03,17,5.70
2010,05,20,03,18,5.70
2010,05,20,03,19,5.70
2010,05,20,03,20,5.70
2010,05,20,03,21,5.70
2010,05,20,03,22,5.70
2010,05,20,03,23,5.70
2010,05,20,03,24,5.70
2010,05,20,03,25,5.70
2010,05,20,03,26,5.70
2010,05,20,03,27,5.70
2010,05,20,03,28,5.60
2010,05,20,03,29,5.60
2010,05,20,03,30,5.60
2010,05,20,03,31,5.60
2010,05,20,03,32,5.60
2010,05,20,03,33,5.60
2010,05,20,03,34,5.60
2010,05,20,03,35,5.60
2010,05,20,03,36,5.60
2010,05,20,03,37,5.60
2010,05,20,03,38,5.60
2010,05,20,03,39,5.60
2010,05,20,03,40,5.60
2010,05,20,03,41,5.60
2010,05,20,03,42,5.60
2010,05,20,03,43,5.60
2010,05,20,03,44,5.60
2010,05,20,03,45,5.60
2010,05,20,03,46,5.60
2010,05,20,03,47,5.60
2010,05,20,03,48,5.60
2010,05,20,03,49,5.60
2010,05,20,03,50,5.60
2010,05,20,03,51,5.60
2010,05,20,03,52,5.70
2010,05,20,03,53,5.70
2010,05,20,03,54,5.70
2010,05,20,03,55,5.70
2010,05,20,03,56,5.70
2010,05,20,03,57,5.70
2010,05,20,03,58,5.70
2010,05,20,03,59,5.70
2010,05,20,04,00,5.70
2010,05,20,04,01,5.70
2010,05,20,04,02,5.70
2010,05,20,04,03,5.70
2010,05,20,04,04,5.70
2010,05,20,04,05,5.70
2010,05,20,04,06,5.70
2010,05,20,04,07,5.70
2010,05,20,04,08,5.70
2010,05,20,04,09,5.70
2010,05,20,04,10,5.70
2010,05,20,04,11,5.70
2010,05,20,04,12,5.70
2010,05,20,04,13,5.70
2010,05,20,04,14,5.70
2010,05,20,04,15,5.70
2010,05,20,04,16,5.70
2010,05,20,04,17,5.70
2010,05,20,04,18,5.70
2010,05,20,04,19,5.70
2010,05,20,04,20,5.60
2010,05,20,04,21,5.60
2010,05,20,04,22,5.60
2010,05,20,04,23,5.60
2010,05,20,04,24,5.60
2010,05,20,04,25,5.60
2010,05,20,04,26,5.60
2010,05,20,04,27,5.60
2010,05,20,04,28,5.60
2010,05,20,04,29,5.60
2010,05,20,04,30,5.60
2010,05,20,04,31,5.50
2010,05,20,04,32,5.50
2010,05,20,04,33,5.50
2010,05,20,04,34,5.50
2010,05,20,04,35,5.50
2010,05,20,04,36,5.50
2010,05,20,04,37,5.50
2010,05,20,04,38,5.50
2010,05,20,04,39,5.50
2010,05,20,04,40,5.50
2010,05,20,04,41,5.50
2010,05,20,04,42,5.50
2010,05,20,04,43,5.50
2010,05,20,04,44,5.50
2010,05,20,04,45,5.50
2010,05,20,04,46,5.50
2010,05,20,04,47,5.50
2010,05,20,04,48,5.50
2010,05,20,04,49,5.50
2010,05,20,04,50,5.50
2010,05,20,04,51,5.50
2010,05,20,04,52,5.50
2010,05,20,04,53,5.50
2010,05,20,04,54,5.50
2010,05,20,04,55,5.50
2010,05,20,04,56,5.50
2010,05,20,04,57,5.50
2010,05,20,04,58,5.50
2010,05,20,04,59,5.50
2010,05,20,05,00,5.50
2010,05,20,05,01,5.50
2010,05,20,05,02,5.50
2010,05,20,05,03,5.50
2010,05,20,05,04,5.50
2010,05,20,05,05,5.60
2010,05,20,05,06,5.60
2010,05,20,05,07,5.60
2010,05,20,05,08,5.60
2010,05,20,05,09,5.60
2010,05,20,05,10,5.60
2010,05,20,05,11,5.60
2010,05,20,05,12,5.60
2010,05,20,05,13,5.60
2010,05,20,05,14,5.50
2010,05,20,05,15,5.50
2010,05,20,05,16,5.50
2010,05,20,05,17,5.50
2010,05,20,05,18,5.50
2010,05,20,05,19,5.50
2010,05,20,05,20,5.50
2010,05,20,05,21,5.50
2010,05,20,05,22,5.50
2010,05,20,05,23,5.50
2010,05,20,05,24,5.50
2010,05,20,05,25,5.50
2010,05,20,05,26,5.50
2010,05,20,05,27,5.40
2010,05,20,05,28,5.40
2010,05,20,05,29,5.40
2010,05,20,05,30,5.40
2010,05,20,05,31,5.40
2010,05,20,05,32,5.40
2010,05,20,05,33,5.40
2010,05,20,05,34,5.40
2010,05,20,05,35,5.40
2010,05,20,05,36,5.40
2010,05,20,05,37,5.40
2010,05,20,05,38,5.40
2010,05,20,05,39,5.40
2010,05,20,05,40,5.40
2010,05,20,05,41,5.40
2010,05,20,05,42,5.40
2010,05,20,05,43,5.40
2010,05,20,05,44,5.40
2010,05,20,05,45,5.40
2010,05,20,05,46,5.40
2010,05,20,05,47,5.40
2010,05,20,05,48,5.40
2010,05,20,05,49,5.40
2010,05,20,05,50,5.40
2010,05,20,05,51,5.40
2010,05,20,05,52,5.40
2010,05,20,05,53,5.40
2010,05,20,05,54,5.40
2010,05,20,05,55,5.40
2010,05,20,05,56,5.40
2010,05,20,05,57,5.40
2010,05,20,05,58,5.40
2010,05,20,05,59,5.40
2010,05,20,06,00,5.40
2010,05,20,06,01,5.40
2010,05,20,06,02,5.40
2010,05,20,06,03,5.40
2010,05,20,06,04,5.40
2010,05,20,06,05,5.40
2010,05,20,06,06,5.40
2010,05,20,06,07,5.40
2010,05,20,06,08,5.40
2010,05,20,06,09,5.40
2010,05,20,06,10,5.40
2010,05,20,06,11,5.40
2010,05,20,06,12,5.40
2010,05,20,06,13,5.40
2010,05,20,06,14,5.40
2010,05,20,06,15,5.30
2010,05,20,06,16,5.30
2010,05,20,06,17,5.30
2010,05,20,06,18,5.30
2010,05,20,06,19,5.30
2010,05,20,06,20,5.30
2010,05,20,06,21,5.30
2010,05,20,06,22,5.30
2010,05,20,06,23,5.30
2010,05,20,06,24,5.30
2010,05,20,06,25,5.30
2010,05,20,06,26,5.30
2010,05,20,06,27,5.30
2010,05,20,06,28,5.30
2010,05,20,06,29,5.30
2010,05,20,06,30,5.30
2010,05,20,06,31,5.30
2010,05,20,06,32,5.30
2010,05,20,06,33,5.30
2010,05,20,06,34,5.30
2010,05,20,06,35,5.30
2010,05,20,06,36,5.30
2010,05,20,06,37,5.30
2010,05,20,06,38,5.20
2010,05,20,06,39,5.20
2010,05,20,06,40,5.20
2010,05,20,06,41,5.20
2010,05,20,06,42,5.20
2010,05,20,06,43,5.20
2010,05,20,06,44,5.20
2010,05,20,06,45,5.20
2010,05,20,06,46,5.20
2010,05,20,06,47,5.10
2010,05,20,06,48,5.10
2010,05,20,06,49,5.10
2010,05,20,06,50,5.10
2010,05,20,06,51,5.10
2010,05,20,06,52,5.10
2010,05,20,06,53,5.10
2010,05,20,06,54,5.10
2010,05,20,06,55,5.10
2010,05,20,06,56,5.10
2010,05,20,06,57,5.10
2010,05,20,06,58,5.10
2010,05,20,06,59,5.20
2010,05,20,07,00,5.20
2010,05,20,07,01,5.20
2010,05,20,07,02,5.20
2010,05,20,07,03,5.20
2010,05,20,07,04,5.20
2010,05,20,07,05,5.20
2010,05,20,07,06,5.20
2010,05,20,07,07,5.20
2010,05,20,07,08,5.20
2010,05,20,07,09,5.20
2010,05,20,07,10,5.20
2010,05,20,07,11,5.20
2010,05,20,07,12,5.20
2010,05,20,07,13,5.30
2010,05,20,07,14,5.30
2010,05,20,07,15,5.30
2010,05,20,07,16,5.30
2010,05,20,07,17,5.30
2010,05,20,07,18,5.30
2010,05,20,07,19,5.30
2010,05,20,07,20,5.30
2010,05,20,07,21,5.30
2010,05,20,07,22,5.30
2010,05,20,07,23,5.30
2010,05,20,07,24,5.30
2010,05,20,07,25,5.30
2010,05,20,07,26,5.30
2010,05,20,07,27,5.30
2010,05,20,07,28,5.30
2010,05,20,07,29,5.30
2010,05,20,07,30,5.30
2010,05,20,07,31,5.30
2010,05,20,07,32,5.30
2010,05,20,07,33,5.30
2010,05,20,07,34,5.30
2010,05,20,07,35,5.40
2010,05,20,07,36,5.40
2010,05,20,07,37,5.40
2010,05,20,07,38,5.40
2010,05,20,07,39,5.40
2010,05,20,07,40,5.40
2010,05,20,07,41,5.40
2010,05,20,07,42,5.40
2010,05,20,07,43,5.40
2010,05,20,07,44,5.40
2010,05,20,07,45,5.40
2010,05,20,07,46,5.50
2010,05,20,07,47,5.50
2010,05,20,07,48,5.50
2010,05,20,07,49,5.50
2010,05,20,07,50,5.50
2010,05,20,07,51,5.50
2010,05,20,07,52,5.50
2010,05,20,07,53,5.60
2010,05,20,07,54,5.60
2010,05,20,07,55,5.60
2010,05,20,07,56,5.50
2010,05,20,07,57,5.50
2010,05,20,07,58,5.50
2010,05,20,07,59,5.50
2010,05,20,08,00,5.50
2010,05,20,08,01,5.50
2010,05,20,08,02,5.50
2010,05,20,08,03,5.50
2010,05,20,08,04,5.50
2010,05,20,08,05,5.50
2010,05,20,08,06,5.60
2010,05,20,08,07,5.60
2010,05,20,08,08,5.60
2010,05,20,08,09,5.60
2010,05,20,08,10,5.70
2010,05,20,08,11,5.70
2010,05,20,08,12,5.70
2010,05,20,08,13,5.70
2010,05,20,08,14,5.70
2010,05,20,08,15,5.70
2010,05,20,08,16,5.70
2010,05,20,08,17,5.70
2010,05,20,08,18,5.70
2010,05,20,08,19,5.70
2010,05,20,08,20,5.80
2010,05,20,08,21,5.80
2010,05,20,08,22,5.80
2010,05,20,08,23,5.90
2010,05,20,08,24,5.90
2010,05,20,08,25,5.90
2010,05,20,08,26,5.90
2010,05,20,08,27,5.90
2010,05,20,08,28,5.90
2010,05,20,08,29,5.90
2010,05,20,08,30,5.90
2010,05,20,08,31,5.90
2010,05,20,08,32,5.90
2010,05,20,08,33,5.90
2010,05,20,08,34,5.90
2010,05,20,08,35,5.90
2010,05,20,08,36,5.90
2010,05,20,08,37,5.90
2010,05,20,08,38,5.90
2010,05,20,08,39,6.00
2010,05,20,08,40,6.00
2010,05,20,08,41,6.10
2010,05,20,08,42,6.10
2010,05,20,08,43,6.20
2010,05,20,08,44,6.20
2010,05,20,08,45,6.20
2010,05,20,08,46,6.20
2010,05,20,08,47,6.30
2010,05,20,08,48,6.30
2010,05,20,08,49,6.40
2010,05,20,08,50,6.40
2010,05,20,08,51,6.40
2010,05,20,08,52,6.50
2010,05,20,08,53,6.50
2010,05,20,08,54,6.40
2010,05,20,08,55,6.50
2010,05,20,08,56,6.60
2010,05,20,08,57,6.70
2010,05,20,08,58,6.70
2010,05,20,08,59,6.80
2010,05,20,09,00,6.90
2010,05,20,09,01,7.00
2010,05,20,09,02,7.00
2010,05,20,09,03,7.00
2010,05,20,09,04,7.00
2010,05,20,09,05,7.10
2010,05,20,09,06,7.10
2010,05,20,09,07,7.20
2010,05,20,09,08,7.20
2010,05,20,09,09,7.30
2010,05,20,09,10,7.30
2010,05,20,09,11,7.40
2010,05,20,09,12,7.40
2010,05,20,09,13,7.40
2010,05,20,09,14,7.50
2010,05,20,09,15,7.50
2010,05,20,09,16,7.60
2010,05,20,09,17,7.70
2010,05,20,09,18,7.80
2010,05,20,09,19,7.90
2010,05,20,09,20,7.90
2010,05,20,09,21,7.90
2010,05,20,09,22,7.80
2010,05,20,09,23,7.70
2010,05,20,09,24,7.60
2010,05,20,09,25,7.50
2010,05,20,09,26,7.50
2010,05,20,09,27,7.50
2010,05,20,09,28,7.50
2010,05,20,09,29,7.50
2010,05,20,09,30,7.40
2010,05,20,09,31,7.40
2010,05,20,09,32,7.30
2010,05,20,09,33,7.30
2010,05,20,09,34,7.30
2010,05,20,09,35,7.30
2010,05,20,09,36,7.30
2010,05,20,09,37,7.20
2010,05,20,09,38,7.10
2010,05,20,09,39,7.00
2010,05,20,09,40,6.90
2010,05,20,09,41,6.90
2010,05,20,09,42,7.00
2010,05,20,09,43,7.10
2010,05,20,09,44,7.10
2010,05,20,09,45,7.10
2010,05,20,09,46,7.20
2010,05,20,09,47,7.20
2010,05,20,09,48,7.30
2010,05,20,09,49,7.30
2010,05,20,09,50,7.40
2010,05,20,09,51,7.40
2010,05,20,09,52,7.40
2010,05,20,09,53,7.40
2010,05,20,09,54,7.40
2010,05,20,09,55,7.40
2010,05,20,09,56,7.40
2010,05,20,09,57,7.40
2010,05,20,09,58,7.40
2010,05,20,09,59,7.30
2010,05,20,10,00,7.30
2010,05,20,10,01,7.30
2010,05,20,10,02,7.50
2010,05,20,10,03,7.50
2010,05,20,10,04,7.50
2010,05,20,10,05,7.60
2010,05,20,10,06,7.60
2010,05,20,10,07,7.70
2010,05,20,10,08,7.70
2010,05,20,10,09,7.80
2010,05,20,10,10,7.80
2010,05,20,10,11,7.80
2010,05,20,10,12,7.90
2010,05,20,10,13,7.90
2010,05,20,10,14,8.00
2010,05,20,10,15,8.10
2010,05,20,10,16,8.10
2010,05,20,10,17,8.10
2010,05,20,10,18,8.20
2010,05,20,10,19,8.20
2010,05,20,10,20,8.40
2010,05,20,10,21,8.50
2010,05,20,10,22,8.60
2010,05,20,10,23,8.70
2010,05,20,10,24,8.70
2010,05,20,10,25,8.70
2010,05,20,10,26,8.70
2010,05,20,10,27,8.90
2010,05,20,10,28,9.10
2010,05,20,10,29,9.20
2010,05,20,10,30,9.20
2010,05,20,10,31,9.20
2010,05,20,10,32,9.20
2010,05,20,10,33,9.10
2010,05,20,10,34,9.20
2010,05,20,10,35,9.20
2010,05,20,10,36,9.20
2010,05,20,10,37,9.30
2010,05,20,10,38,9.40
2010,05,20,10,39,9.20
2010,05,20,10,40,9.20
2010,05,20,10,41,9.30
2010,05,20,10,42,9.30
2010,05,20,10,43,9.20
2010,05,20,10,44,9.30
2010,05,20,10,45,9.30
2010,05,20,10,46,9.40
2010,05,20,10,47,9.50
2010,05,20,10,48,9.50
2010,05,20,10,49,9.40
2010,05,20,10,50,9.20
2010,05,20,10,51,9.10
2010,05,20,10,52,9.10
2010,05,20,10,53,9.10
2010,05,20,10,54,9.10
2010,05,20,10,55,9.20
2010,05,20,10,56,9.40
2010,05,20,10,57,9.50
2010,05,20,10,58,9.60
2010,05,20,10,59,9.60
2010,05,20,11,00,9.50
2010,05,20,11,01,9.50
2010,05,20,11,02,9.50
2010,05,20,11,03,9.60
2010,05,20,11,04,9.70
2010,05,20,11,05,9.70
2010,05,20,11,06,9.70
2010,05,20,11,07,9.70
2010,05,20,11,08,9.70
2010,05,20,11,09,9.80
2010,05,20,11,10,9.70
2010,05,20,11,11,9.70
2010,05,20,11,12,9.70
2010,05,20,11,13,9.50
2010,05,20,11,14,9.50
2010,05,20,11,15,9.50
2010,05,20,11,16,9.50
2010,05,20,11,17,9.40
2010,05,20,11,18,9.30
2010,05,20,11,19,9.30
2010,05,20,11,20,9.30
2010,05,20,11,21,9.40
2010,05,20,11,22,9.50
2010,05,20,11,23,9.70
2010,05,20,11,24,9.70
2010,05,20,11,25,9.70
2010,05,20,11,26,9.70
2010,05,20,11,27,9.80
2010,05,20,11,28,9.90
2010,05,20,11,29,10.10
2010,05,20,12,00,9.70
2010,05,20,12,01,9.70
2010,05,20,12,02,9.70
2010,05,20,12,03,9.70
2010,05,20,12,04,9.70
2010,05,20,12,05,9.60
2010,05,20,12,06,9.60
2010,05,20,12,07,9.50
2010,05,20,12,08,9.40
2010,05,20,12,09,9.40
2010,05,20,12,10,9.40
2010,05,20,12,11,9.40
2010,05,20,12,12,9.30
2010,05,20,12,13,9.20
2010,05,20,12,14,9.20
2010,05,20,12,15,9.20
2010,05,20,12,16,9.30
2010,05,20,12,17,9.40
2010,05,20,12,18,9.50
2010,05,20,12,19,9.60
2010,05,20,12,20,9.50
2010,05,20,12,21,9.40
2010,05,20,12,22,9.20
2010,05,20,12,23,9.00
2010,05,20,12,24,8.90
2010,05,20,12,25,8.70
2010,05,20,12,26,8.60
2010,05,20,12,27,8.50
2010,05,20,12,28,8.30
2010,05,20,12,29,8.20
2010,05,20,12,30,8.10
2010,05,20,12,31,8.00
2010,05,20,12,32,7.80
2010,05,20,12,33,7.80
2010,05,20,12,34,7.80
2010,05,20,12,35,7.80
2010,05,20,12,36,7.90
2010,05,20,12,37,7.90
2010,05,20,12,38,8.00
2010,05,20,12,39,8.20
2010,05,20,12,40,8.20
2010,05,20,12,41,8.40
2010,05,20,12,42,8.50
2010,05,20,12,43,8.70
2010,05,20,12,44,8.90
2010,05,20,12,45,9.00
2010,05,20,12,46,9.20
2010,05,20,12,47,9.30
2010,05,20,12,48,9.40
2010,05,20,12,49,9.60
2010,05,20,12,50,9.70
2010,05,20,12,51,9.80
2010,05,20,12,52,9.90
2010,05,20,12,53,10.00
2010,05,20,12,54,10.10
2010,05,20,12,55,10.10
2010,05,20,12,56,10.20
2010,05,20,12,57,10.30
2010,05,20,12,58,10.30
2010,05,20,12,59,10.40
2010,05,20,13,00,10.40
2010,05,20,13,01,10.40
2010,05,20,13,02,10.40
2010,05,20,13,03,10.40
2010,05,20,13,04,10.30
2010,05,20,13,05,10.30
2010,05,20,13,06,10.20
2010,05,20,13,07,10.10
2010,05,20,13,08,9.90
2010,05,20,13,09,9.60
2010,05,20,13,10,9.30
2010,05,20,13,11,9.10
2010,05,20,13,12,8.90
2010,05,20,13,13,8.80
2010,05,20,13,14,8.70
2010,05,20,13,15,8.70
2010,05,20,13,16,8.70
2010,05,20,13,17,8.70
2010,05,20,13,18,8.70
2010,05,20,13,19,8.70
2010,05,20,13,20,8.70
2010,05,20,13,21,8.70
2010,05,20,13,22,8.70
2010,05,20,13,23,8.60
2010,05,20,13,24,8.50
2010,05,20,13,25,8.50
2010,05,20,13,26,8.50
2010,05,20,13,27,8.40
2010,05,20,13,28,8.40
2010,05,20,13,29,8.40
2010,05,20,13,30,8.40
2010,05,20,13,31,8.30
2010,05,20,13,32,8.30
2010,05,20,13,33,8.40
2010,05,20,13,34,8.50
2010,05,20,13,35,8.60
2010,05,20,13,36,8.70
2010,05,20,13,37,8.80
2010,05,20,13,38,8.90
2010,05,20,13,39,9.00
2010,05,20,13,40,9.00
2010,05,20,13,41,9.20
2010,05,20,13,42,9.30
2010,05,20,13,43,9.50
2010,05,20,13,44,9.70
2010,05,20,13,45,9.80
2010,05,20,13,46,9.90
2010,05,20,13,47,9.90
2010,05,20,13,48,10.10
2010,05,20,13,49,10.20
2010,05,20,13,50,10.30
2010,05,20,13,51,10.30
2010,05,20,13,52,10.30
2010,05,20,13,53,10.40
2010,05,20,13,54,10.40
2010,05,20,13,55,10.40
2010,05,20,13,56,10.40
2010,05,20,13,57,10.40
2010,05,20,13,58,10.30
2010,05,20,13,59,10.20
2010,05,20,14,00,10.30
2010,05,20,14,01,10.30
2010,05,20,14,02,10.40
2010,05,20,14,03,10.40
2010,05,20,14,04,10.50
2010,05,20,14,05,10.60
2010,05,20,14,06,10.60
2010,05,20,14,07,10.60
2010,05,20,14,08,10.70
2010,05,20,14,09,10.80
2010,05,20,14,10,10.80
2010,05,20,14,11,10.90
2010,05,20,14,12,10.90
2010,05,20,14,13,10.90
2010,05,20,14,14,11.10
2010,05,20,14,15,11.10
2010,05,20,14,16,11.00
2010,05,20,14,17,10.90
2010,05,20,14,18,10.80
2010,05,20,14,19,10.70
2010,05,20,14,20,10.60
2010,05,20,14,21,10.60
2010,05,20,14,22,10.60
2010,05,20,14,23,10.60
2010,05,20,14,24,10.60
2010,05,20,14,25,10.60
2010,05,20,14,26,10.70
2010,05,20,14,27,10.60
2010,05,20,14,28,10.60
2010,05,20,14,29,10.50
2010,05,20,14,30,10.40
2010,05,20,14,31,10.30
2010,05,20,14,32,10.20
2010,05,20,14,33,10.20
2010,05,20,14,34,10.30
2010,05,20,14,35,10.20
2010,05,20,14,36,10.30
2010,05,20,14,37,10.30
2010,05,20,14,38,10.40
2010,05,20,14,39,10.40
2010,05,20,14,40,10.40
2010,05,20,14,41,10.50
2010,05,20,14,42,10.60
2010,05,20,14,43,10.60
2010,05,20,14,44,10.70
2010,05,20,14,45,10.80
2010,05,20,14,46,10.90
2010,05,20,14,47,10.90
2010,05,20,14,48,10.90
2010,05,20,14,49,11.00
2010,05,20,14,50,11.10
2010,05,20,14,51,11.10
2010,05,20,14,52,11.20
2010,05,20,14,53,11.20
2010,05,20,14,54,11.20
2010,05,20,14,55,11.30
2010,05,20,14,56,11.40
2010,05,20,14,57,11.50
2010,05,20,14,58,11.60
2010,05,20,14,59,11.40
2010,05,20,15,00,11.40
2010,05,20,15,01,11.40
2010,05,20,15,02,11.40
2010,05,20,15,03,11.40
2010,05,20,15,04,11.30
2010,05,20,15,05,11.20
2010,05,20,15,06,11.10
2010,05,20,15,07,11.10
2010,05,20,15,08,11.10
2010,05,20,15,09,11.10
2010,05,20,15,10,11.10
2010,05,20,15,11,11.20
2010,05,20,15,12,11.30
2010,05,20,15,13,11.40
2010,05,20,15,14,11.40
2010,05,20,15,15,11.40
2010,05,20,15,16,11.50
2010,05,20,15,17,11.60
2010,05,20,15,18,11.60
2010,05,20,15,19,11.60
2010,05,20,15,20,11.60
2010,05,20,15,21,11.50
2010,05,20,15,22,11.40
2010,05,20,15,23,11.30
2010,05,20,15,24,11.20
2010,05,20,15,25,11.10
2010,05,20,15,26,11.00
2010,05,20,15,27,10.80
2010,05,20,15,28,10.60
2010,05,20,15,29,10.30
2010,05,20,15,30,10.10
2010,05,20,15,31,9.80
2010,05,20,15,32,9.70
2010,05,20,15,33,9.50
2010,05,20,15,34,9.50
2010,05,20,15,35,9.50
2010,05,20,15,36,9.40
2010,05,20,15,37,9.40
2010,05,20,15,38,9.40
2010,05,20,15,39,9.40
2010,05,20,15,40,9.40
2010,05,20,15,41,9.40
2010,05,20,15,42,9.50
2010,05,20,15,43,9.60
2010,05,20,15,44,9.60
2010,05,20,15,45,9.70
2010,05,20,15,46,9.70
2010,05,20,15,47,9.70
2010,05,20,15,48,9.80
2010,05,20,15,49,9.90
2010,05,20,15,50,10.00
2010,05,20,15,51,10.00
2010,05,20,15,52,10.10
2010,05,20,15,53,10.10
2010,05,20,15,54,10.10
2010,05,20,15,55,10.20
2010,05,20,15,56,10.30
2010,05,20,15,57,10.40
2010,05,20,15,58,10.50
2010,05,20,15,59,10.60
2010,05,20,16,00,10.60
2010,05,20,16,01,10.60
2010,05,20,16,02,10.60
2010,05,20,16,03,10.60
2010,05,20,16,04,10.60
2010,05,20,16,05,10.50
2010,05,20,16,06,10.40
2010,05,20,16,07,10.40
2010,05,20,16,08,10.60
2010,05,20,16,09,10.60
2010,05,20,16,10,10.60
2010,05,20,16,11,10.60
2010,05,20,16,12,10.60
2010,05,20,16,13,10.70
2010,05,20,16,14,10.80
2010,05,20,16,15,10.90
2010,05,20,16,16,10.90
2010,05,20,16,17,10.90
2010,05,20,16,18,10.80
2010,05,20,16,19,10.70
2010,05,20,16,20,10.60
2010,05,20,16,21,10.60
2010,05,20,16,22,10.60
2010,05,20,16,23,10.60
2010,05,20,16,24,10.60
2010,05,20,16,25,10.60
2010,05,20,16,26,10.60
2010,05,20,16,27,10.60
2010,05,20,16,28,10.60
2010,05,20,16,29,10.60
2010,05,20,16,30,10.70
2010,05,20,16,31,10.70
2010,05,20,16,32,10.70
2010,05,20,16,33,10.70
2010,05,20,16,34,10.70
2010,05,20,16,35,10.60
2010,05,20,16,36,10.60
2010,05,20,16,37,10.60
2010,05,20,16,38,10.60
2010,05,20,16,39,10.50
2010,05,20,16,40,10.40
2010,05,20,16,41,10.40
2010,05,20,16,42,10.40
2010,05,20,16,43,10.40
2010,05,20,16,44,10.40
2010,05,20,16,45,10.40
2010,05,20,16,46,10.40
2010,05,20,16,47,10.50
2010,05,20,16,48,10.60
2010,05,20,16,49,10.40
2010,05,20,16,50,10.40
2010,05,20,16,51,10.40
2010,05,20,16,52,10.40
2010,05,20,16,53,10.40
2010,05,20,16,54,10.40
2010,05,20,16,55,10.40
2010,05,20,16,56,10.30
2010,05,20,16,57,10.30
2010,05,20,16,58,10.30
2010,05,20,16,59,10.20
2010,05,20,17,00,10.20
2010,05,20,17,01,10.20
2010,05,20,17,02,10.20
2010,05,20,17,03,10.20
2010,05,20,17,04,10.20
2010,05,20,17,05,10.20
2010,05,20,17,06,10.10
2010,05,20,17,07,10.10
2010,05,20,17,08,10.20
2010,05,20,17,09,10.10
2010,05,20,17,10,10.10
2010,05,20,17,11,10.10
2010,05,20,17,12,10.10
2010,05,20,17,13,10.10
2010,05,20,17,14,10.10
2010,05,20,17,15,10.10
2010,05,20,17,16,10.10
2010,05,20,17,17,10.10
2010,05,20,17,18,10.10
2010,05,20,17,19,10.10
2010,05,20,17,20,10.10
2010,05,20,17,21,10.10
2010,05,20,17,22,10.10
2010,05,20,17,23,10.10
2010,05,20,17,24,10.10
2010,05,20,17,25,10.10
2010,05,20,17,26,10.10
2010,05,20,17,27,10.10
2010,05,20,17,28,10.10
2010,05,20,17,29,9.90
2010,05,20,17,30,9.90
2010,05,20,17,31,9.90
2010,05,20,17,32,9.90
2010,05,20,17,33,9.90
2010,05,20,17,34,9.90
2010,05,20,17,35,9.90
2010,05,20,17,36,9.90
2010,05,20,17,37,9.90
2010,05,20,17,38,9.90
2010,05,20,17,39,9.90
2010,05,20,17,40,10.00
2010,05,20,17,41,10.10
2010,05,20,17,42,10.10
2010,05,20,17,43,10.10
2010,05,20,17,44,10.10
2010,05,20,17,45,10.10
2010,05,20,17,46,10.10
2010,05,20,17,47,10.10
2010,05,20,17,48,10.10
2010,05,20,17,49,10.10
2010,05,20,17,50,10.10
2010,05,20,17,51,10.10
2010,05,20,17,52,10.10
2010,05,20,17,53,10.10
2010,05,20,17,54,10.10
2010,05,20,17,55,10.10
2010,05,20,17,56,10.10
2010,05,20,17,57,10.10
2010,05,20,17,58,10.00
2010,05,20,17,59,9.90
2010,05,20,18,00,9.90
2010,05,20,18,01,9.90
2010,05,20,18,02,9.90
2010,05,20,18,03,9.90
2010,05,20,18,04,9.90
2010,05,20,18,05,9.90
2010,05,20,18,06,9.90
2010,05,20,18,07,9.80
2010,05,20,18,08,9.80
2010,05,20,18,09,9.80
2010,05,20,18,10,9.80
2010,05,20,18,11,9.80
2010,05,20,18,12,9.80
2010,05,20,18,13,9.80
2010,05,20,18,14,9.80
2010,05,20,18,15,9.80
2010,05,20,18,16,9.80
2010,05,20,18,17,9.90
2010,05,20,18,18,9.90
2010,05,20,18,19,9.90
2010,05,20,18,20,9.90
2010,05,20,18,21,9.80
2010,05,20,18,22,9.80
2010,05,20,18,23,9.70
2010,05,20,18,24,9.70
2010,05,20,18,25,9.60